Regional Weather Roundup
Issued by NWS

Home | Current Version | Previous Version | Graphics & Text | Print | Product List | Glossary On
Versions: 1 2 3 4 5 6 7 8 9 10 11 12 13 14 15 16 17 18 19 20 21 22 23 24 25 26 27 28 29 30 31 32 33 34 35 36 37 38 39 40 41 42 43 44 45 46 47 48 49 50
462
ASUS43 KFSD 180902
RWRSD

WEATHER ROUNDUP FOR SOUTH DAKOTA
NATIONAL WEATHER SERVICE SIOUX FALLS SD
400 AM CDT WED OCT 18 2017

NOTE: "FAIR" INDICATES FEW OR NO CLOUDS BELOW 12,000 FEET WITH NO
SIGNIFICANT WEATHER AND/OR OBSTRUCTIONS TO VISIBILITY.


SDZ001>005-009-010-012>017-181000-
NORTHWEST AND NORTH CENTRAL SOUTH DAKOTA

CITY           SKY/WX    TMP DP  RH WIND       PRES   REMARKS
BUFFALO          N/A     58  23  26 W21       29.73R
FAITH            N/A     56  25  30 W10       29.74R
MOBRIDGE       CLOUDY    50  45  83 S6        29.66R
$$

SDZ012>016-024>037-041>051-057-063-072>074-181000-
SOUTHWEST AND SOUTH CENTRAL SOUTH DAKOTA

CITY           SKY/WX    TMP DP  RH WIND       PRES   REMARKS
RAPID CTY ARPT CLOUDY    74  19  12 W22G32    29.77R
PIERRE         CLOUDY    48  32  53 NE3       29.70R
CUSTER         CLOUDY    52  14  22 W6        29.94R
ELLSWORTH AFB  CLOUDY    67  20  17 N12       29.78R
PHILIP         MOCLDY    50  30  46 W10       29.72R
PINE RIDGE     CLOUDY    43  28  55 W5        29.83S
SPEARFISH      FAIR      68  19  15 W17       29.85R
WINNER         FAIR      57  31  37 SW15G23   29.73F
$$

SDZ004>011-016>023-039-040-181000-
NORTHEAST SOUTH DAKOTA

CITY           SKY/WX    TMP DP  RH WIND       PRES   REMARKS
ABERDEEN       CLOUDY    46  40  79 S7        29.70R
WATERTOWN      PTCLDY    47  43  86 S10       29.73F
BROOKINGS      CLEAR     52  43  71 S14       29.77F
SISSETON         N/A     60  41  49 S15       29.68S
$$

SDZ017-020-022-023-036>040-048>070-181000-
SOUTHEAST SOUTH DAKOTA

CITY           SKY/WX    TMP DP  RH WIND       PRES   REMARKS
SIOUX FALLS    CLEAR     55  45  68 S13       29.81F
HURON          CLOUDY    46  40  79 S8        29.72S
CHAMBERLAIN    CLOUDY    52  35  51 SW3       29.72F
MITCHELL       CLOUDY    51  41  68 S10       29.74F
$$

ABBREVIATIONS USED IN REMARKS
   TC - TEMPERATURE IN CELSIUS
  WCI - WIND CHILL INDEX
   HX - HEAT INDEX
  VSB - VISIBILITY





USA.gov is the U.S. government's official web portal to all federal, state and local government web resources and services.